TimeEDT,TemperatureF,Dew PointF,Humidity,Sea Level PressureIn,VisibilityMPH,Wind Direction,Wind SpeedMPH,Gust SpeedMPH,PrecipitationIn,Events,Conditions,WindDirDegrees,DateUTC
12:51 AM,64.9,62.1,90,30.15,10.0,South,8.1,-,N/A,,Scattered Clouds,170,2013-08-19 04:51:00
1:51 AM,64.9,62.1,90,30.15,10.0,Calm,Calm,-,N/A,,Mostly Cloudy,0,2013-08-19 05:51:00
2:03 AM,64.4,62.6,94,30.22,10.0,South,3.5,-,N/A,,Mostly Cloudy,190,2013-08-19 06:03:00
2:51 AM,64.9,62.1,90,30.14,10.0,South,3.5,-,0.00,Rain,Light Rain,190,2013-08-19 06:51:00
3:05 AM,64.4,62.6,94,30.21,10.0,Calm,Calm,-,0.00,Rain,Light Rain,0,2013-08-19 07:05:00
3:20 AM,64.4,62.6,94,30.21,10.0,Calm,Calm,-,0.00,,Overcast,0,2013-08-19 07:20:00
3:33 AM,64.4,62.6,94,30.21,10.0,SW,3.5,-,0.00,,Overcast,220,2013-08-19 07:33:00
3:51 AM,64.9,62.1,90,30.13,5.0,South,4.6,-,0.01,Rain,Light Rain,170,2013-08-19 07:51:00
4:04 AM,64.4,62.6,94,30.20,10.0,SSW,4.6,-,0.00,,Overcast,200,2013-08-19 08:04:00
4:28 AM,64.4,62.6,94,30.21,10.0,SSW,4.6,-,0.00,,Overcast,210,2013-08-19 08:28:00
4:51 AM,64.9,62.1,90,30.13,10.0,Calm,Calm,-,0.00,,Overcast,0,2013-08-19 08:51:00
5:51 AM,64.9,62.1,90,30.14,10.0,SW,3.5,-,N/A,,Overcast,230,2013-08-19 09:51:00
6:02 AM,64.4,62.6,94,30.21,10.0,WSW,3.5,-,N/A,,Overcast,240,2013-08-19 10:02:00
6:40 AM,64.4,62.6,94,30.22,10.0,Calm,Calm,-,N/A,,Overcast,0,2013-08-19 10:40:00
6:49 AM,64.4,62.6,94,30.21,10.0,Calm,Calm,-,N/A,,Overcast,0,2013-08-19 10:49:00
6:51 AM,64.9,62.1,90,30.14,10.0,Calm,Calm,-,N/A,,Overcast,0,2013-08-19 10:51:00
7:03 AM,64.4,62.6,94,30.21,10.0,Calm,Calm,-,N/A,,Overcast,0,2013-08-19 11:03:00
7:51 AM,64.9,62.1,90,30.14,10.0,Calm,Calm,-,N/A,,Overcast,0,2013-08-19 11:51:00
8:51 AM,64.9,62.1,90,30.15,8.0,SW,3.5,-,0.00,,Overcast,220,2013-08-19 12:51:00
9:42 AM,64.4,62.6,94,30.21,1.8,West,3.5,-,0.00,Rain,Light Rain,260,2013-08-19 13:42:00
9:51 AM,64.9,63.0,93,30.14,1.5,SW,4.6,-,0.02,Rain,Light Rain,230,2013-08-19 13:51:00
10:18 AM,64.4,62.6,94,30.22,3.0,SW,4.6,-,0.03,Rain,Light Rain,230,2013-08-19 14:18:00
10:30 AM,64.4,62.6,94,30.21,2.0,SW,3.5,-,0.03,Rain,Light Rain,230,2013-08-19 14:30:00
10:36 AM,64.4,62.6,94,30.22,5.0,Calm,Calm,-,0.03,Rain,Light Rain,0,2013-08-19 14:36:00
10:51 AM,66.0,63.0,90,30.15,10.0,Calm,Calm,-,0.03,,Overcast,0,2013-08-19 14:51:00
11:35 AM,68.0,64.4,88,30.23,10.0,Calm,Calm,-,N/A,,Overcast,0,2013-08-19 15:35:00
11:44 AM,69.8,64.4,83,30.22,10.0,Variable,3.5,-,N/A,,Overcast,0,2013-08-19 15:44:00
11:51 AM,68.0,64.0,87,30.15,10.0,West,4.6,-,N/A,,Overcast,270,2013-08-19 15:51:00
12:07 PM,68.0,64.4,88,30.22,10.0,NW,5.8,-,0.00,,Overcast,320,2013-08-19 16:07:00
12:18 PM,66.2,64.4,94,30.22,9.0,North,6.9,-,0.00,,Overcast,350,2013-08-19 16:18:00
12:48 PM,66.2,62.6,88,30.22,2.5,NNW,8.1,-,0.01,Rain,Rain,340,2013-08-19 16:48:00
12:51 PM,66.9,64.0,90,30.15,2.5,NNW,5.8,-,0.01,Rain,Light Rain,340,2013-08-19 16:51:00
1:02 PM,68.0,62.6,83,30.22,4.0,Calm,Calm,-,0.02,Rain,Light Rain,0,2013-08-19 17:02:00
1:22 PM,69.8,64.4,83,30.21,10.0,Calm,Calm,-,0.02,,Overcast,0,2013-08-19 17:22:00
1:51 PM,72.0,64.0,76,30.13,10.0,NNW,3.5,-,0.02,,Overcast,340,2013-08-19 17:51:00
2:25 PM,69.8,62.6,78,30.20,10.0,Calm,Calm,-,0.01,Rain,Light Rain,0,2013-08-19 18:25:00
2:51 PM,71.1,64.0,78,30.12,10.0,Calm,Calm,-,0.01,,Overcast,0,2013-08-19 18:51:00
3:33 PM,73.4,62.6,69,30.19,10.0,NE,4.6,-,N/A,,Mostly Cloudy,40,2013-08-19 19:33:00
3:51 PM,72.0,64.0,76,30.10,10.0,NNE,3.5,-,N/A,,Overcast,20,2013-08-19 19:51:00
4:10 PM,71.6,62.6,73,30.18,10.0,Calm,Calm,-,N/A,,Overcast,0,2013-08-19 20:10:00
4:51 PM,73.0,62.1,68,30.10,10.0,NNW,6.9,-,N/A,,Mostly Cloudy,330,2013-08-19 20:51:00
5:29 PM,73.4,62.6,69,30.18,10.0,NW,6.9,-,N/A,,Mostly Cloudy,310,2013-08-19 21:29:00
5:43 PM,73.4,62.6,69,30.18,10.0,NNW,6.9,-,N/A,,Overcast,330,2013-08-19 21:43:00
5:51 PM,73.0,62.1,68,30.09,10.0,NNW,5.8,-,N/A,,Overcast,340,2013-08-19 21:51:00
6:51 PM,71.1,63.0,75,30.09,10.0,NNW,4.6,-,N/A,,Scattered Clouds,330,2013-08-19 22:51:00
7:51 PM,71.1,63.0,75,30.10,10.0,North,3.5,-,N/A,,Overcast,350,2013-08-19 23:51:00
8:51 PM,66.0,62.1,87,30.12,10.0,Calm,Calm,-,N/A,,Clear,0,2013-08-20 00:51:00
9:51 PM,63.0,61.0,93,30.14,6.0,Calm,Calm,-,N/A,,Clear,0,2013-08-20 01:51:00
10:51 PM,63.0,60.1,90,30.14,5.0,Calm,Calm,-,N/A,,Clear,0,2013-08-20 02:51:00
11:51 PM,62.1,59.0,90,30.14,5.0,Calm,Calm,-,N/A,,Clear,0,2013-08-20 03:51:00